CZ-6A DEB, 60843

Orbit data source: Space-Track

CZ-6A DEB, 60843 is space debris in LEO originally from a launch on Tue, 06 Aug 2024 UTC launched from the Taiyaun Space Center, China (TSC). Debris objects in space refer to the collection of defunct objects orbiting the Earth. Examples of debris include non-operational satellites, rocket bodies, and fragments generated from explosions, collisions, or faulty payload assembly.

Loading next visibility...
Identifier
60843, 2024-140HW
Orbit
LEO
Country
Flag of CNCN / PRC
Related business
Manufacturer
SAST
Mission
Spacecraft
Bus & Motor
Unknown
Mass
Unknown
Launch date (UTC)
2024-08-06 (2 years ago)
Launch vehicle
Unknown
Launch site
Taiyaun Space Center, China (TSC)
Object type
Payload
Rocket body
Debris
Shape & HBR
Unknown shape, 0.2 m
Radar Cross Section
Medium (>0.1 m² and <1 m²)

Expand to show TLE details & history
Last TLE update: 13 hours ago

TLE from 13 hours ago
0 CZ-6A DEB
1 60843U 24140HW  26171.30444316  .00000909  00000-0  43635-3 0  9996
2 60843  89.0153 275.9672 0063912 195.0450 164.8839 14.17090359 94430
Epoch: 2026-06-20T07:18Z
TLE epoch observation values (Epoch: 2026-06-20T07:18:23.889Z)
Latitude
-0.00006°
Longitude
-102.15332°
Altitude
882.795 km
Speed
7.388 km/s
True Right ascension
18h 23m 52s
True Declination
0° 00' 00"
Sunlit
Object was in full shadow at epoch
Visualization orbit readout
Latitude
Unknown
Longitude
Unknown
Altitude
Unknown
Speed
Unknown
Apparent Right ascension
Unknown
Apparent Declination
Unknown
Sunlit
N/A
Visualization observer readout
Local Sidereal Time
07:21:43
Azimuth
Unknown
Elevation
Unknown
Doppler factor
Unknown
Orbital elements
Apogee altitude
878.247 km
Perigee altitude
786.082 km
Semi-major axis
7,210.302 km
Eccentricity
0.00639
Inclination
89.0153°
RAAN
275.9672°
Arg. of periapsis
195.045°
True anomaly
165.07342°
Mean anomaly
164.8839°
Eccentric anomaly
164.97881°
Mean motion
3.54497 °/min
Orbital period
101.55 mins
BSTAR
0.00043635
Loading maneuver chart data...
Computing Atmospheric mass density...
Loading historical data...
Loading historical data...
Loading historical data...
Loading historical data...
Loading historical data...
Loading historical data...
Loading historical data...

Documentation

Showing up to 5 results
|